This demonstration page uses our WeatherBlox Daily Observations layout. Learn more.

Hourly Observations for December 10, 2016

Temp ( °F °C ) Dew Point ( °F °C ) Humidity (%) Winds ( mph kmh ) Pressure ( in mb ) Visibility ( mi km ) Precip ( " mm )
12:54 am 00:54 Cloudy 22 -5.6 15 -9.4 75 75 Calm 30.53 1034 10 16.0934 0 0
1:54 am 01:54 Clear 22 -5.6 15 -9.4 75 75 SE 5 7 30.51 1033 10 16.0934 0 0
2:54 am 02:54 Mostly Clear 22 -5.6 15 -9.4 75 75 SE 3 6 30.51 1033 10 16.0934 0 0
3:54 am 03:54 Cloudy 23 -5 17 -8.3 78 78 Calm 30.51 1033 10 16.0934 0 0
4:54 am 04:54 Cloudy 23 -5 16 -8.9 74 74 E 5 7 30.48 1032 10 16.0934 0 0
5:54 am 05:54 Cloudy 24 -4.4 16 -8.9 71 71 E 5 7 30.45 1031 10 16.0934 0 0
6:54 am 06:54 Cloudy 23 -5 16 -8.9 74 74 E 5 7 30.43 1031 10 16.0934 0 0
7:54 am 07:54 Cloudy 23 -5 16 -8.9 74 74 ESE 8 13 30.4 1030 10 16.0934 0 0
8:54 am 08:54 Cloudy 25 -3.9 17 -8.3 72 72 SE 8 13 30.4 1029 10 16.0934 0 0
9:54 am 09:54 Partly Cloudy 27 -2.8 18 -7.8 69 69 SSE 9 15 30.39 1029 10 16.0934 0 0
10:54 am 10:54 Cloudy 30 -1.1 16 -8.9 56 56 SE 10 17 30.35 1028 10 16.0934 0 0
11:54 am 11:54 Cloudy 31 -0.6 15 -9.4 52 52 SSE 17 28 30.28 1026 10 16.0934 0 0
12:54 pm 12:54 Cloudy 32 0 15 -9.4 50 50 SE 15 24 30.21 1023 10 16.0934 0 0
1:54 pm 13:54 Cloudy 32 0 16 -8.9 52 52 SSE 16 26 30.16 1022 10 16.0934 0 0
2:54 pm 14:54 Cloudy 33 0.6 16 -8.9 49 49 SSE 17 28 30.12 1020 10 16.0934 0 0
3:54 pm 15:54 Cloudy 33 0.6 16 -8.9 49 49 SE 13 20 30.09 1019 10 16.0934 0 0
4:54 pm 16:54 Cloudy 33 0.6 16 -8.9 49 49 SE 12 19 30.07 1018 10 16.0934 0 0
5:54 pm 17:54 Cloudy 33 0.6 17 -8.3 52 52 SSE 13 20 30.03 1017 10 16.0934 0 0
6:54 pm 18:54 Mostly Cloudy 32 0 19 -7.2 59 59 SE 12 19 30.01 1016 10 16.0934 0 0
7:54 pm 19:54 Clear 32 0 21 -6.1 64 64 SSE 10 17 30 1016 10 16.0934 0 0
8:54 pm 20:54 Clear 32 0 21 -6.1 64 64 SSE 13 20 29.96 1015 10 16.0934 0 0
9:54 pm 21:54 Clear 33 0.6 22 -5.6 64 64 SSE 10 17 29.93 1014 10 16.0934 0 0
10:54 pm 22:54 Clear 33 0.6 21 -6.1 61 61 SSE 12 19 29.89 1012 10 16.0934 0 0
11:54 pm 23:54 Clear 32 0 21 -6.1 64 64 SSE 9 15 29.88 1012 10 16.0934 0 0

Powered by AerisWeather